User: anonymous   Login
Location: Unspecified
(0.0000°N, 0.0000°E)
Time: 05:19:36
(UTC+00:00)
Language:

NADEZHDA 7 - Orbit

View from above orbital plane
View from above orbital plane
View from above satellite
View from above satellite

Ground track
Ground track

The orbit data is extracted from the following two-line orbital elements,

1 27534U 02046A   18343.97364557 +.00000042 +00000-0 +28897-4 0  9992
2 27534 082.9353 199.6337 0037232 045.0099 065.3454 13.72705539811789
Epoch (UTC): 09 December 2018 23:22:02
Eccentricity: 0.0037232
inclination: 82.9353°
perigee height: 962 km
apogee height: 1017 km
right ascension of ascending node: 199.6337°
argument of perigee: 45.0099°
revolutions per day: 13.72705539
mean anomaly at epoch: 65.3454°
orbit number at epoch: 81178

The dashed part of the orbit path shows where the satellite is in the earth's shadow,  

DLR